Location: Asheville, NC
(35.6000°N, 82.5500°W)
Time: 07:48:49
(UTC-04:00)

Vanguard 1 - Pass Details

Date: 18 February 2018
Orbit: 650 x 3833 km, 34.3° (Epoch: 21 May)

Event Time Altitude Azimuth Distance (km) Brightness Sun altitude
Rises 13:09:05 0° 213° (SSW) 7,386 15.2 42.6°
Reaches altitude 10° 13:15:33 10° 204° (SSW) 5,904 15.1 42.4°
Maximum altitude 13:28:34 29° 153° (SSE) 3,340 13.8 41.8°
Drops below altitude 10° 13:36:47 10° 98° (E) 3,678 13.0 41.3°
Sets 13:39:41 0° 86° (E) 4,303 13.2 41.2°
